Regional Weather Roundup
Issued by NWS Wakefield, VA

Home | Current Version | Previous Version | Text Only | Print | Product List | Glossary Off
Versions: 1 2 3 4 5 6 7 8 9 10 11 12 13 14 15 16 17 18 19 20 21 22 23 24 25 26 27 28 29 30 31 32 33 34 35 36 37 38 39 40 41 42 43 44 45 46 47 48 49 50

835
ASUS41 KAKQ 260715
RWRAKQ

REGIONAL WEATHER ROUNDUP
NATIONAL WEATHER SERVICE WAKEFIELD VA
300 AM EDT WED APR 26 2017

Note: "fair" indicates few or no clouds below 12,000 feet with no
significant weather and/or obstructions to visibility. * = Denotes
station may not report precipitation (e.g., rain,snow,etc.),
thunder or fog.

VAZ042-051-052>054-056-260800-
NORTHERN VIRGINIA

CITY           SKY/WX    TMP DP  RH WIND       PRES   REMARKS
WASH NATIONAL  CLOUDY    59  58  96 N10       29.70F
DULLES         DRIZZLE   57  55  93 N7        29.72F
FORT BELVOIR   CLOUDY    58  56  92 NW6       29.70S
QUANTICO       CLOUDY    59  58  96 N9        29.71S
FREDERICKSBRG* CLOUDY    58  58 100 NW5       29.70S
STAFFORD*      CLOUDY    56  56 100 NW10G16   29.74F FOG
WARRENTON      CLOUDY    58  55  88 NW5       29.71F
CULPEPER*      CLOUDY    58  57  97 N5        29.73F
MANASSAS*        N/A     57  56  96 NW9       29.72F
LEESBURG*      CLOUDY    57  57 100 N7        29.73F
WINCHESTER     CLOUDY    54  54 100 NW3       29.75S FOG
FRONT ROYAL*   CLOUDY    54  54 100 CALM      29.74F
LURAY*         FOG       54  54 100 CALM      29.76S VSB 1/2
$$

VAZ048-049-060>072-079>083-260800-
CENTRAL AND SOUTH CENTRAL VIRGINIA

CITY           SKY/WX    TMP DP  RH WIND       PRES   REMARKS
RICHMOND       CLOUDY    58  58 100 NW9       29.69F
CHESTERFIELD*  CLOUDY   N/A N/A N/A NW10      29.71F
PETERSBURG*    CLOUDY    58  56  94 W5        29.71S
HANOVER        CLOUDY    58  55  90 VRB6      29.71F
TAPPAHANNOCK*  DRIZZLE   58  58 100 NE5       29.68F
QUINTON*       CLOUDY    58  58 100 NW6       29.68F
CHARLOTTSVILLE MOCLDY    54  53  97 CALM      29.72F
GORDONSVILLE*  CLOUDY    57  55  93 NE5       29.72S
ORANGE*        CLOUDY    55  54  94 N3        29.72F
LOUISA*        CLOUDY    61  59  94 N5        29.70F
BUMPASS*       CLOUDY    57  57 100 NW5       29.71F
FARMVILLE*     CLOUDY    58  58  99 CALM      29.73S
CREWE*         CLOUDY    57  57 100 NW6       29.72S
FORT PICKETT*  CLOUDY   N/A N/A N/A NW3       29.72S
CHASE CITY*    CLOUDY    57  55  94 CALM      29.74S
CLARKSVILLE*   CLOUDY    55  55 100 CALM      29.74S
SOUTH HILL*    CLOUDY    58  58 100 CALM      29.78F
LAWRENCEVILLE* CLOUDY    58  57  96 CALM      29.72S
EMPORIA*       CLOUDY    59  57  94 W3        29.72F
$$

VAZ088>098-260800-
SOUTHEAST VIRGINIA

CITY           SKY/WX    TMP DP  RH WIND       PRES   REMARKS
NORFOLK        LGT RAIN  63  60  90 W6        29.66S
VIRGINIA BEACH CLOUDY    61  59  93 NW7       29.64F
NORFOLK NAVAL  LGT RAIN  62  60  93 W9        29.67S
WEST POINT*    CLOUDY    59  58  98 NW6       29.68F
SALUDA*        CLOUDY    58  58 100 NW9       29.66S
NEWPORT NEWS   LGT RAIN  61  59  93 W9        29.67S
LANGLEY AFB    LGT RAIN  61  61 100 NW7       29.65S
FORT EUSTIS    CLOUDY    60  59  94 NW10      29.65S
WILLIAMSBURG*  CLOUDY    61  61 100 CALM      29.68S
HR EXEC AP*    CLOUDY    63  57  82 NW3       29.66S
FRANKLIN*      CLOUDY    61  59  94 W6        29.70S
US460-WAKEFLD  CLOUDY    60  59  96 W5        29.68F
$$

VAZ020-022-025-037-045-260800-
WEST CENTRAL AND SOUTHWEST VIRGINIA

CITY           SKY/WX    TMP DP  RH WIND       PRES   REMARKS
STAUNTON*      CLOUDY    53  52  97 CALM      29.78S
WAYNESBORO*    CLOUDY    52  52 100 CALM      29.76S
HOT SPRINGS VA CLOUDY    50  46  87 W7        29.79F
LYNCHBURG      CLOUDY    50  49  96 CALM      29.76F
DANVILLE       PTCLDY    54  54 100 CALM      29.76S
SOUTH BOSTON*  CLOUDY    57  56  96 NW3       29.75S
MARTINSVILLE   CLOUDY    51  51  98 CALM      29.78F
ROANOKE        CLOUDY    56  52  86 CALM      29.78F
BLACKSBURG     CLOUDY    55  54  97 CALM      29.81S
DUBLIN*        CLOUDY    56  53  90 CALM      29.79S
MARION*        CLOUDY    58  57  95 CALM      29.82S
HILLSVILLE*    FOG       54  54 100 CALM      29.78F VSB 1/4
RICHLANDS*     FAIR      55  31  41 CALM      29.79F
WISE*            N/A     54  54 100 CALM      29.79F
ABINGDON*      FOG       53  53 100 CALM      29.78F VSB 1/4
$$

MDZ021>025-VAZ099-100-260800-
SOUTHERN MARYLAND AND THE DELMARVA PENINSULA

CITY           SKY/WX    TMP DP  RH WIND       PRES   REMARKS
PATUXENT RIVER CLOUDY    57  57 100 N14       29.66F
BAY BRIDGE APT CLOUDY    55  55 100 N9        29.68F FOG
LEONARDTOWN    CLOUDY    55  55 100 CALM      29.68F
DOVER          CLOUDY    57  57 100 N8        29.65F FOG
GEORGETOWN     FOG       58  57  97 N7        29.65F VSB 3/4
EASTON         CLOUDY    58  56  94 N8        29.69F FOG
CAMBRIDGE      CLOUDY    57  57 100 N9        29.66S
SALISBURY      CLOUDY    58  58 100 NE10      29.63F FOG
OCEAN CITY     FOG       56  55  97 NE3       29.63F VSB 1/2
WALLOPS ISLAND LGT RAIN  57  57 100 N7        29.62S FOG
ACCOMACK*      DRIZZLE   60  56  85 NW9       29.63S
$$

NCZ012>017-030>032-260800-
NORTH CENTRAL AND EASTERN NORTH CAROLINA

CITY           SKY/WX    TMP DP  RH WIND       PRES   REMARKS
ROANOKE RAPIDS CLOUDY    61  59  94 NW3       29.71F
RALEIGH        CLOUDY    60  56  86 N5        29.75F
ELIZABETH CITY CLOUDY    63  63 100 SW6       29.67F
AHOSKIE*         N/A     60  59  97 CALM      29.71S
EDENTON*       CLOUDY    65  63  90 NW8       29.69F
CURRITUCK*     DRIZZLE   63  63 100 CALM      29.67F
KILL DEVIL HLS CLOUDY    64  64 100 CALM      29.66S
MANTEO         CLOUDY    63  62  96 W7        29.68S
CAPE HATTERAS  PTCLDY    66  61  84 W9G18     29.69S
TARBORO*       NOT AVBL
GOLDSBORO      CLOUDY    61  61 100 W5        29.72F
WASHINGTON     CLOUDY    63  61  95 CALM      29.70F
GREENVILLE     CLOUDY    63  63 100 NW5       29.75S
NEW BERN       CLEAR     60  59  96 W5        29.72F
WILMINGTON     CLOUDY    61  60  97 W7        29.75S
$$

VAZ048-260800-
ELSEWHERE

CITY           SKY/WX    TMP DP  RH WIND       PRES   REMARKS
HARRISBURG PA  CLOUDY    57  53  86 NE3       29.73F
BALTIMORE      DRIZZLE   56  56 100 N5        29.69F FOG
ANNAPOLIS      CLOUDY    59  32  36 N9        29.68F FOG
ANDREWS AFB    LGT RAIN  57  56  98 N8        29.68F
PHILADELPHIA   CLOUDY    56  55  97 NE13      29.71S
HENDERSON NC   CLOUDY    55  53  94 CALM      29.74F
GREENSBORO     MOCLDY    56  56 100 W6        29.76S
ROCKY MOUNT    CLOUDY    61  59  93 NW6       29.73S
$$

VAZ100-260800-
MARINE

STATION/POSITION TIME  TEMP    WIND        PRES    WAVE   SWELL
                       AIR SEA DIR/SP/G            HT/PER HT/PER
                 (UTC) (F)     (DEG/KT/KT) (MB)    (FT/S) (FT/S)
CAPE MAY NJ      0648   57 55  110/  4/  5 1003.5F
LEWES DE         0648   56 54   10/  4/  5 1003.7F
15NM E FENWICK I 0650   53 51  130/  6/  8 1004.3F   9/11   8/11
OCEAN-CITY-INLET 0648   55 54   70/  4/  5 1003.9F
WACHAPREAGUE VA  0642   59 61  250/  2/  4 1002.6S
THOMAS POINT MD  0700   56 55  360/ 12/ 14   N/A
GOOSES REEF MD   0700   57 53  360/ 17/ 19 1004.9    2/ 3
COVE POINT MD    0642   56     360/ 18/ 22 1005.0F
SOLOMONS ISLAND  0642   58 60  340/ 14/ 16   N/A
BISHOPS HEAD MD  0648   58 60  340/ 10/ 15 1004.3S
PINEY POINT MD   0648          360/  9/ 10   N/A
POTOMAC MD       0700   58 60  340/ 10/ 14 1003.4    1/ 2
CAMBRIDGE MD     0636   58 61                N/A
LEWISETTA VA     0642   58 61  350/  8/ 12 1004.2F
RAPPAHANNOCK LGT 0648          330/ 19/ 22 1004.2R
STINGRAY PT      0700   59 62  340/ 12/ 14 1002.0    1/ 2
YORK RVR RNG VA  0642   61     310/ 10/ 12 1003.6S
YORKTOWN VA      0642   61 63  290/ 10/ 13 1004.0F
JAMESTOWN VA     0700   61 67  310/ 12/ 16   N/A
DOMINION TERM VA 0642   62     310/ 16/ 18 1004.2F
KIPTOPEKE VA     0648      60  310/ 12/ 13   N/A
CHES BAY BRIDGE  0642   62 62  310/ 13/ 15 1003.9F
CAPE HENRY VA    0642   61     280/  9/ 13   N/A
WILLOUBY STN VA  0642   62     300/ 12/ 14 1005.2F
S CRANEY ISL VA  0642   62     280/  8/ 13 1004.3F
CAPE HENRY BUOY  0642      56                N/A     5/10   2/11
1ST LANDING BUOY 0700   61 61              1004.2    2/ 3
CAPE CHARLES BUO 0651      56                N/A     6/ 9   2/11
64NM E OF VA BCH 0650   55 54  290/  2/  4 1004.6F   7/ 8   7/ 8
DUCK PIER NC     0642   64 58  280/  5/  6 1004.0F
44100 DUCK FRF   0635      57                N/A     6/10   2/11
44056 DUCK FRF   0630      60                N/A     6/ 9   2/11
OREGON INLET NC  0642   64 64  270/  5/  8 1004.6F
HATTERAS NC      0642   66 68  270/ 16/ 18 1005.0F
DIAMOND SHLS NC  0650   69 77  270/ 17/ 21 1005.2S   9/ 9   7/ 9
CAPE LOOKOUT NC  0700   64     280/ 11/ 13 1006.1R
$$




USA.gov is the U.S. government's official web portal to all federal, state and local government web resources and services.